Berlin, MD

1:23 PM EST on January 17, 2017 (GMT -0500)
Ocean City Municipal

Weather History for KOXB - January, 2013

Change the Weather History Date:

Thursday, January 3, 2013

  Actual Average (KSBY) Record (KSBY)
Temperature  
Mean Temperature 30 °F -  
Max Temperature 35 °F 46 °F 70 °F (2000)
Min Temperature 26 °F 27 °F 8 °F (1920)
Degree Days  
Heating Degree Days 34    
Moisture  
Dew Point 18 °F    
Average Humidity 61    
Maximum Humidity 79    
Minimum Humidity 42    
Precipitation  
Precipitation 0.00 in - - ()
Sea Level Pressure  
Sea Level Pressure 30.21 in    
Wind  
Wind Speed 6 mph (WNW)    
Max Wind Speed 8 mph    
Max Gust Speed 26 mph    
Visibility 10 miles    
Events      
Averages and records for this station are not official NWS values.
T = Trace of Precipitation, MM = Missing Value Source: NWS Daily Summary

Daily Weather History Graph

Daily Weather History Graph

Search for Another Location

Airport or City:

Trip Planner

Search our weather history database for the weather conditions in past years. The results will help you decide how hot, cold, wet, or windy it might be!

Date:

Astronomy

Jan. 03, 2013 Rise Set
Actual Time 7:17 AM EST 4:52 PM EST
Civil Twilight 6:48 AM EST 5:22 PM EST
Nautical Twilight 6:15 AM EST 5:55 PM EST
Astronomical Twilight 5:43 AM EST 6:27 PM EST
Moon 11:19 PM EST (1/3) 10:33 AM EST (1/3)
Length of Visible Light 10h 34m
Length of Day
9h 35m
Waning Gibbous, 65% of the Moon is Illuminated
Jan 3
Waning Gibbous
Jan 4
Last Quarter
Jan 11
New
Jan 18
First Quarter
Jan 26
Full

Hourly Weather History & Observations

Time (EST) Temp. Windchill Dew Point Humidity Pressure Visibility Wind Dir Wind Speed Gust Speed Precip Events Conditions
12:53 AM 30.0 °F 22.4 °F 16.0 °F 56% 30.22 in 10.0 mi North 8.1 mph - N/A   Clear
2:53 AM 28.9 °F 23.9 °F 16.0 °F 58% 30.23 in 10.0 mi NNW 4.6 mph - N/A   Clear
3:53 AM 28.0 °F 22.8 °F 17.1 °F 63% 30.22 in 10.0 mi NNW 4.6 mph - N/A   Clear
4:53 AM 28.0 °F 24.2 °F 17.1 °F 63% 30.20 in 10.0 mi NNW 3.5 mph - N/A   Clear
5:53 AM 27.0 °F 21.6 °F 17.1 °F 66% 30.21 in 10.0 mi NW 4.6 mph - N/A   Clear
6:53 AM 26.1 °F 21.9 °F 18.0 °F 71% 30.23 in 10.0 mi NW 3.5 mph - N/A   Clear
7:53 AM 27.0 °F 20.5 °F 18.0 °F 69% 30.25 in 10.0 mi NW 5.8 mph - N/A   Clear
8:53 AM 28.9 °F 23.9 °F 18.0 °F 64% 30.25 in 10.0 mi NW 4.6 mph - N/A   Clear
9:53 AM 30.0 °F 24.1 °F 19.0 °F 64% 30.25 in 10.0 mi WNW 5.8 mph - N/A   Clear
10:53 AM 32.0 °F 28.7 °F 19.9 °F 61% 30.25 in 10.0 mi Variable 3.5 mph - N/A   Clear
11:53 AM 34.0 °F 28.8 °F 18.0 °F 52% 30.22 in 10.0 mi NNW 5.8 mph 21.9 mph N/A   Clear
12:53 PM 34.0 °F 27.2 °F 16.0 °F 48% 30.19 in 10.0 mi WNW 8.1 mph 26.5 mph N/A   Clear
1:53 PM 35.1 °F 31.0 °F 14.0 °F 42% 30.17 in 10.0 mi Variable 4.6 mph - N/A   Clear
2:53 PM 35.1 °F 29.3 °F 15.1 °F 44% 30.16 in 10.0 mi WNW 6.9 mph - N/A   Clear
3:53 PM 35.1 °F 31.0 °F 16.0 °F 46% 30.17 in 10.0 mi WNW 4.6 mph - N/A   Clear
4:53 PM 33.1 °F 30.0 °F 17.1 °F 52% 30.18 in 10.0 mi WNW 3.5 mph - N/A   Clear
5:53 PM 30.9 °F 27.5 °F 18.0 °F 59% 30.19 in 10.0 mi West 3.5 mph - N/A   Clear
6:53 PM 30.0 °F 26.5 °F 19.0 °F 64% 30.21 in 10.0 mi West 3.5 mph - N/A   Clear
7:53 PM 30.0 °F 23.2 °F 19.9 °F 66% 30.20 in 9.0 mi West 6.9 mph - N/A   Clear
8:53 PM 28.9 °F 22.8 °F 21.0 °F 72% 30.20 in 10.0 mi West 5.8 mph - N/A   Clear
9:53 PM 28.9 °F 21.9 °F 21.9 °F 75% 30.20 in 10.0 mi WSW 6.9 mph - N/A   Clear
10:53 PM 30.0 °F 23.2 °F 24.1 °F 79% 30.19 in 10.0 mi West 6.9 mph - N/A   Clear
11:53 PM 30.9 °F 24.3 °F 24.1 °F 76% 30.19 in 10.0 mi West 6.9 mph - N/A   Clear